Date,TemperatureHighF,TemperatureAvgF,TemperatureLowF,DewpointHighF,DewpointAvgF,DewpointLowF,HumidityHigh,HumidityAvg,HumidityLow,PressureMaxIn,PressureMinIn,WindSpeedMaxMPH,WindSpeedAvgMPH,GustSpeedMaxMPH,PrecipitationSumIn
2013-1-1,34.4,20.2,0.3,99.9,21.2,-4.0,88,73,57,29.99,29.71,20,6,0,0.00
2013-1-2,164.0,7.9,0.0,99.9,23.9,-6.0,88,80,72,30.26,29.87,16,5,0,0.00
2013-1-3,164.0,6.1,0.3,99.9,41.1,-6.0,85,75,59,30.24,29.94,8,1,0,0.00
2013-1-4,35.0,29.0,17.1,29.0,23.2,12.0,88,79,71,29.94,29.79,15,6,0,0.00
2013-1-5,36.3,27.4,11.3,28.0,18.7,8.0,92,70,59,30.26,29.82,17,5,0,0.00
2013-1-6,36.8,30.1,14.9,32.0,25.6,12.0,89,83,78,30.18,29.91,12,3,0,0.00
2013-1-7,35.8,22.7,17.1,31.0,16.9,14.0,87,78,64,30.39,29.95,13,4,0,0.01
2013-1-8,39.4,28.3,15.4,26.0,21.7,13.0,93,77,58,30.38,30.25,18,5,0,0.00
2013-1-9,42.9,30.5,16.7,35.0,24.5,15.0,94,79,61,30.38,29.95,23,5,0,0.03
2013-1-10,41.7,36.1,25.1,35.0,23.0,-99.9,85,65,54,30.58,30.05,17,-25,0,0.01
2013-1-11,38.1,21.7,19.3,36.0,-4.6,-99.9,95,67,63,30.58,30.12,12,-240,0,0.05
2013-1-12,44.9,24.6,36.1,43.0,-14.0,-99.9,96,59,91,30.16,30.09,11,-377,0,0.00
2013-1-13,46.6,41.8,38.6,45.0,37.3,-99.9,97,91,91,30.13,29.93,14,-27,0,0.00
2013-1-14,50.1,17.3,44.5,46.0,-47.2,-99.9,96,32,52,30.29,29.84,21,-628,0,0.00
2013-1-15,37.2,7.5,27.4,26.0,-72.7,-99.9,84,15,61,30.33,30.22,3,-770,0,0.00
2013-1-16,32.8,16.7,30.2,31.0,-31.8,-99.9,94,48,89,30.23,29.81,15,-472,0,0.01
2013-1-17,35.3,25.1,11.3,31.0,17.7,2.0,92,74,53,30.20,29.81,18,6,0,0.00
2013-1-18,16.3,3.6,1.7,2.0,-53.4,-99.9,79,33,51,30.40,30.16,6,-530,0,0.00
2013-1-19,42.3,15.2,38.8,27.0,-52.9,-99.9,60,21,54,30.23,29.75,12,-624,0,0.03
2013-1-20,42.8,20.6,29.1,35.0,-32.2,-99.9,90,34,51,29.98,29.44,23,-451,0,0.05
2013-1-21,-200.0,0.0,200.0,-99.9,-99.9,-99.9,0,0,100,30.04,29.79,0,-999,0,0.00
2013-1-22,5.5,0.2,5.4,-2.0,-97.7,-99.9,72,2,66,30.11,29.77,2,-944,0,0.00
2013-1-23,5.2,0.2,5.0,-8.0,-97.0,-99.9,54,2,52,30.22,30.04,4,-956,0,0.00
2013-1-24,10.4,0.3,9.9,-6.0,-97.0,-99.9,48,1,46,30.32,30.13,9,-968,0,0.00
2013-1-25,-200.0,0.0,200.0,-99.9,-99.9,-99.9,0,0,100,30.40,30.07,0,-999,0,0.00
2013-1-26,-200.0,0.0,200.0,-99.9,-99.9,-99.9,0,0,100,30.27,30.05,0,-999,0,0.00
2013-1-27,-200.0,0.0,200.0,-99.9,-99.9,-99.9,0,0,100,30.49,30.27,0,-999,0,0.00
2013-1-28,25.3,0.8,24.6,24.0,-96.0,-99.9,93,3,93,30.45,29.96,3,-968,0,0.00
2013-1-29,38.1,25.5,24.5,35.0,9.1,-99.9,94,78,85,30.16,29.98,12,-144,0,0.16
2013-1-30,57.1,37.1,37.0,55.0,17.8,-99.9,96,77,88,30.00,29.28,22,-174,0,0.22
2013-1-31,56.6,32.2,25.3,55.0,-0.7,-99.9,96,55,47,29.58,28.83,24,-266,0,0.51
2013-2-1,25.2,22.1,17.9,16.0,11.3,7.0,84,64,55,30.11,29.58,17,6,0,0.00
2013-2-2,22.9,17.9,11.3,18.0,11.8,6.0,90,77,60,30.21,30.05,20,4,0,0.00
2013-2-3,28.2,19.0,8.0,17.0,13.0,5.0,92,78,55,30.05,29.77,6,1,0,0.00
2013-2-4,27.5,17.9,12.8,16.0,-1.2,-99.9,90,59,33,29.93,29.75,25,-82,0,0.00
2013-2-5,26.5,11.9,6.3,12.0,-16.8,-99.9,79,52,42,30.06,29.91,6,-207,0,0.00
2013-2-6,27.5,10.5,13.9,22.0,-44.8,-99.9,87,34,41,30.38,29.89,11,-493,0,0.00
2013-2-7,18.0,13.0,7.9,4.0,0.6,-3.0,65,58,47,30.61,30.39,13,5,0,0.00
2013-2-8,27.5,20.3,13.8,24.0,16.3,3.0,91,85,63,30.44,29.90,11,4,0,0.00
2013-2-9,22.0,13.4,3.8,20.0,5.9,-3.0,91,73,52,30.38,29.90,29,14,0,0.00
2013-2-10,28.8,5.7,0.7,99.9,-16.6,-99.9,85,42,38,30.53,30.23,6,-388,0,0.04
2013-2-11,40.2,17.2,21.2,38.0,-40.1,-99.9,95,40,73,30.25,29.63,10,-546,0,0.04
2013-2-12,40.2,7.5,36.8,32.0,-75.5,-99.9,77,15,68,29.87,29.63,20,-779,0,0.00
2013-2-13,37.3,0.4,37.3,25.0,-98.6,-99.9,62,1,62,29.85,29.73,3,-988,0,0.00
2013-2-14,37.6,2.9,31.1,25.0,-90.9,-99.9,76,5,58,29.94,29.73,9,-916,0,0.00
2013-2-15,43.4,2.9,32.8,25.0,-92.1,-99.9,70,4,64,29.97,29.84,7,-915,0,0.00
2013-2-16,33.2,1.0,32.4,25.0,-96.0,-99.9,73,2,72,30.01,29.89,4,-968,0,0.00
2013-2-17,20.5,8.4,12.5,9.0,-45.0,-99.9,78,33,50,29.90,29.66,20,-463,0,0.00
2013-2-18,20.1,8.0,7.3,9.0,-32.6,-99.9,79,44,52,30.18,29.90,7,-346,0,0.00
2013-2-19,46.0,25.1,13.8,35.0,-5.4,-99.9,95,51,37,30.17,29.60,16,-208,0,0.24
2013-2-20,34.5,14.5,26.0,33.0,-42.6,-99.9,94,30,52,29.78,29.59,16,-495,0,0.00
2013-2-21,25.7,13.0,14.2,19.0,-27.1,-99.9,87,50,65,30.39,29.79,12,-337,0,0.00
2013-2-22,36.4,23.7,18.1,26.0,2.2,-99.9,92,67,64,30.44,30.23,7,-166,0,0.00
2013-2-23,36.5,33.6,30.1,33.0,22.8,-99.9,91,75,65,30.23,29.89,15,-46,0,0.02
2013-2-24,36.5,25.6,31.1,35.0,-1.9,-99.9,95,68,87,29.95,29.77,11,-258,0,0.06
2013-2-25,37.3,13.3,33.6,33.0,-51.1,-99.9,93,32,82,30.25,29.96,5,-630,0,0.00
2013-2-26,42.2,15.1,37.2,35.0,-49.9,-99.9,81,28,66,30.33,30.09,14,-605,0,0.00
2013-2-27,41.6,27.3,34.4,34.0,-4.9,-99.9,92,56,67,30.10,29.63,19,-271,0,0.07
2013-2-28,46.1,37.6,32.4,37.0,32.0,-99.9,95,83,66,29.63,29.56,10,-8,0,0.01
2013-3-1,37.3,31.7,32.3,33.0,20.7,-99.9,95,79,78,29.77,29.60,17,-66,0,0.00
2013-3-2,33.4,25.8,27.2,30.0,5.2,-99.9,92,72,77,29.78,29.73,15,-171,0,0.01
2013-3-3,-200.0,0.0,200.0,-99.9,-99.9,-99.9,0,0,100,29.76,29.66,0,-999,0,0.00
2013-3-4,-200.0,0.0,200.0,-99.9,-99.9,-99.9,0,0,100,29.89,29.69,0,-999,0,0.00
2013-3-5,-200.0,0.0,200.0,-99.9,-99.9,-99.9,0,0,100,30.09,29.88,0,-999,0,0.00
2013-3-6,41.7,21.6,36.1,30.0,-29.8,-99.9,68,34,57,30.18,30.07,14,-445,0,0.00
2013-3-7,37.5,34.1,30.5,28.0,25.8,23.0,90,72,61,30.19,30.14,17,8,0,0.00
2013-3-8,38.8,26.1,29.6,31.0,-0.9,-99.9,89,61,69,30.32,30.14,22,-212,0,0.01
2013-3-9,48.2,32.2,26.3,31.0,9.1,-99.9,87,57,45,30.36,30.29,14,-132,0,0.00
2013-3-10,55.5,34.2,24.2,31.0,-8.0,-99.9,90,35,32,30.34,30.14,19,-270,0,0.00
2013-3-11,50.0,45.7,39.7,37.0,32.6,28.0,74,61,47,30.20,29.98,19,8,0,0.00
2013-3-12,52.0,42.4,38.7,50.0,26.6,-99.9,95,76,59,29.99,29.65,16,-117,0,1.61
2013-3-13,44.8,37.9,31.7,37.0,32.3,24.0,96,81,46,29.84,29.75,9,2,0,0.01
2013-3-14,34.3,11.1,19.7,27.0,-48.8,-99.9,85,32,68,29.93,29.75,16,-556,0,0.00
2013-3-15,34.9,24.3,14.3,30.0,12.8,-99.9,92,71,48,29.94,29.59,18,-38,0,0.01
2013-3-16,30.6,18.0,21.1,19.0,-17.2,-99.9,83,50,57,29.93,29.74,15,-274,0,0.00
2013-3-17,29.4,21.0,14.9,17.0,6.6,-99.9,90,65,48,30.35,29.92,15,-40,0,0.00
2013-3-18,36.2,25.7,10.1,22.0,10.9,6.0,88,57,31,30.46,30.12,16,2,0,0.00
2013-3-19,35.1,21.2,28.9,31.0,-13.6,-99.9,94,60,73,30.11,29.72,15,-327,0,0.11
2013-3-20,38.3,16.1,25.7,28.0,-40.7,-99.9,93,33,53,29.76,29.66,21,-502,0,0.08
2013-3-21,33.2,1.8,22.3,23.0,-96.0,-99.9,85,2,71,29.77,29.61,7,-934,0,0.00
2013-3-22,33.7,7.8,16.4,20.0,-61.9,-99.9,84,24,56,29.77,29.63,6,-673,0,0.00
2013-3-23,39.2,6.3,35.2,25.0,-80.6,-99.9,67,9,49,29.83,29.68,19,-829,0,0.00
2013-3-24,41.1,7.4,35.1,30.0,-77.2,-99.9,80,12,57,29.87,29.79,13,-798,0,0.00
2013-3-25,41.4,4.6,34.7,32.0,-85.1,-99.9,86,9,74,29.79,29.55,9,-875,0,0.00
2013-3-26,36.6,9.9,27.1,31.0,-64.4,-99.9,87,22,67,29.83,29.59,13,-686,0,0.00
2013-3-27,50.5,26.5,26.9,33.0,-22.4,-99.9,87,35,45,29.93,29.78,15,-391,0,0.00
2013-3-28,50.3,22.2,34.5,38.0,-29.8,-99.9,90,39,57,30.08,29.93,10,-476,0,0.00
2013-3-29,47.2,34.6,32.5,39.0,18.1,-99.9,93,73,68,30.10,30.03,10,-111,0,0.00
2013-3-30,53.3,40.3,27.5,35.0,26.4,20.0,95,63,28,30.13,30.04,10,2,0,0.00
2013-3-31,57.9,40.7,27.4,39.0,17.4,-99.9,89,50,31,30.11,29.72,20,-69,0,0.06
2013-4-1,47.8,36.8,30.8,43.0,20.8,-99.9,94,67,35,29.83,29.54,22,-68,0,0.00
2013-4-2,35.0,15.5,30.4,18.0,-45.9,-99.9,57,23,39,29.95,29.81,23,-523,0,0.00
2013-4-3,42.5,20.8,31.0,17.0,-35.6,-99.9,56,23,26,30.22,29.94,24,-414,0,0.00
2013-4-4,52.0,36.4,21.1,25.0,12.1,-99.9,87,46,30,30.30,29.93,24,-62,0,0.00
2013-4-5,51.5,43.1,33.7,31.0,25.4,20.0,66,50,39,29.98,29.77,18,9,0,0.00
2013-4-6,42.8,32.7,25.7,21.0,12.9,8.0,67,46,27,30.30,29.98,22,8,0,0.00
2013-4-7,59.5,49.4,31.6,39.0,24.9,13.0,62,39,28,30.26,29.83,31,12,0,0.00
2013-4-8,57.7,48.9,43.4,40.0,35.5,33.0,77,61,40,30.14,29.91,15,4,0,0.00
2013-4-9,58.5,45.1,44.2,48.0,22.5,-99.9,94,60,56,30.04,29.80,19,-138,0,0.02
2013-4-10,49.1,10.5,42.8,46.0,-66.4,-99.9,96,22,83,30.01,29.91,4,-766,0,0.00
2013-4-11,40.1,26.9,34.7,28.0,-8.7,-99.9,72,45,47,30.19,29.91,15,-255,0,0.00
2013-4-12,36.5,10.0,33.5,33.0,-64.7,-99.9,92,21,63,30.18,29.79,16,-711,0,0.01
2013-4-13,51.9,23.1,39.3,40.0,-32.1,-99.9,90,35,60,29.93,29.78,13,-508,0,0.02
2013-4-14,48.2,37.5,30.2,38.0,21.1,-99.9,93,69,52,30.24,29.90,17,-92,0,0.00
2013-4-15,61.4,39.2,28.0,38.0,6.6,-99.9,95,46,39,30.37,30.20,18,-195,0,0.00
2013-4-16,59.0,44.4,51.1,54.0,14.5,-99.9,92,52,51,30.26,29.96,20,-175,0,0.08
2013-4-17,57.5,41.9,39.0,44.0,12.0,-99.9,87,50,45,30.36,30.09,16,-162,0,0.01
2013-4-18,65.6,50.3,32.3,42.0,35.5,29.0,93,61,37,30.37,29.98,21,7,0,0.01
2013-4-19,74.9,62.9,46.5,62.0,50.3,-99.9,90,69,55,29.98,29.47,28,-20,0,0.80
2013-4-20,51.7,35.7,37.2,43.0,1.9,-99.9,89,47,41,30.29,29.71,19,-191,0,0.06
2013-4-21,47.7,38.3,31.0,25.0,21.4,18.0,69,52,31,30.69,30.29,14,6,0,0.00
2013-4-22,57.9,39.5,25.1,29.0,14.0,-99.9,91,48,24,30.73,30.52,19,-69,0,0.00
2013-4-23,51.8,44.3,34.5,39.0,33.3,27.0,78,66,57,30.55,30.16,23,7,0,0.00
2013-4-24,72.4,56.0,34.4,51.0,42.4,33.0,95,64,35,30.15,29.64,16,6,0,0.00
2013-4-25,66.4,46.4,42.8,52.0,28.3,-99.9,72,56,36,30.24,29.64,26,-39,0,0.01
2013-4-26,57.1,48.2,41.5,37.0,35.3,34.0,78,62,44,30.46,30.40,9,3,0,0.00
2013-4-27,63.5,46.9,30.7,40.0,31.4,-99.9,95,62,28,30.46,30.30,7,-9,0,0.00
2013-4-28,72.8,48.4,35.0,42.0,18.0,-99.9,88,46,27,30.33,30.11,11,-135,0,0.00
2013-4-29,64.9,45.5,52.7,49.0,10.9,-99.9,72,45,46,30.22,30.14,14,-225,0,0.00
2013-4-30,72.7,61.7,53.7,51.0,45.4,39.0,76,57,41,30.30,30.22,16,4,0,0.00
2013-5-1,78.9,65.4,47.6,47.0,40.3,34.0,71,42,25,30.44,30.27,12,3,0,0.00
2013-5-2,81.1,67.1,49.4,50.0,43.6,35.0,70,44,30,30.46,30.28,18,5,0,0.00
2013-5-3,72.6,61.2,49.6,44.0,37.8,30.0,60,43,27,30.51,30.32,17,4,0,0.00
2013-5-4,76.3,63.9,48.5,51.0,45.0,35.0,81,53,33,30.35,30.18,17,3,0,0.00
2013-5-5,79.3,64.5,48.8,42.0,36.4,31.0,55,37,21,30.28,30.11,13,5,0,0.00
2013-5-6,77.5,62.6,44.6,48.0,35.2,15.0,78,42,10,30.24,30.06,15,5,0,0.00
2013-5-7,82.9,67.0,48.6,54.0,44.5,35.0,75,48,20,30.16,30.02,12,3,0,0.00
2013-5-8,76.9,64.6,51.6,62.0,54.6,45.0,92,72,46,30.16,30.01,15,3,0,0.28
2013-5-9,71.6,64.1,55.2,61.0,57.3,54.0,97,80,56,30.01,29.86,11,2,0,0.02
2013-5-10,73.1,63.0,54.3,61.0,57.1,53.0,95,82,61,29.99,29.81,8,2,0,0.01
2013-5-11,67.7,63.8,58.6,64.0,59.5,52.0,92,86,72,29.81,29.64,20,6,0,0.20
2013-5-12,60.1,53.8,42.1,52.0,41.9,27.0,89,66,32,29.81,29.65,16,4,0,0.00
2013-5-13,50.6,45.7,41.3,35.0,32.1,29.0,75,60,47,30.07,29.81,17,8,0,0.00
2013-5-14,58.6,45.7,32.4,38.0,33.9,29.0,94,67,36,30.12,30.00,10,2,0,0.00
2013-5-15,61.6,48.6,35.4,51.0,39.9,31.0,93,74,36,30.05,29.62,21,4,0,0.06
2013-5-16,76.8,60.4,43.6,51.0,43.6,36.0,95,59,24,29.86,29.62,28,7,0,0.00
2013-5-17,67.0,55.3,45.3,46.0,42.6,39.0,89,65,39,30.22,29.87,15,4,0,0.00
2013-5-18,74.5,58.4,38.2,48.0,41.6,36.0,94,59,27,30.31,30.20,9,2,0,0.00
2013-5-19,66.7,58.3,50.1,57.0,52.1,45.0,94,80,65,30.29,30.13,14,4,0,0.22
2013-5-20,72.2,63.5,57.2,65.0,59.6,55.0,96,87,77,30.14,29.97,12,3,0,0.00
2013-5-21,78.3,64.7,57.5,70.0,61.1,56.0,97,88,66,29.97,29.81,14,4,0,0.80
2013-5-22,79.5,52.1,58.3,72.0,26.8,-99.9,93,67,74,29.87,29.76,21,-217,0,0.01
2013-5-23,77.3,58.1,62.7,69.0,34.7,-99.9,95,67,67,29.80,29.72,20,-178,0,0.44
2013-5-24,62.6,50.3,44.8,61.0,48.6,43.0,96,93,90,30.02,29.68,19,8,0,0.82
2013-5-25,45.6,30.5,41.7,44.0,-1.2,-99.9,94,65,91,30.00,29.90,26,-297,0,1.03
2013-5-26,50.2,37.5,38.6,47.0,15.5,-99.9,97,73,79,30.12,29.87,22,-161,0,0.44
2013-5-27,68.9,34.8,40.3,47.0,-14.9,-99.9,97,36,35,30.18,30.09,12,-404,0,0.00
2013-5-28,66.8,17.4,41.4,50.0,-47.8,-99.9,93,31,50,30.23,30.10,4,-634,0,0.00
2013-5-29,70.3,20.3,58.2,66.0,-49.0,-99.9,94,28,84,30.11,29.93,7,-683,0,0.11
2013-5-30,89.3,36.1,61.4,72.0,-24.5,-99.9,96,30,43,30.09,30.00,6,-520,0,0.00
2013-5-31,90.1,77.0,62.3,72.0,66.3,60.0,94,72,43,30.09,29.91,19,4,0,0.00
2013-6-1,87.3,77.5,67.5,76.0,65.5,-99.9,92,73,53,29.96,29.80,19,-8,0,0.06
2013-6-2,84.6,72.1,63.4,73.0,66.6,-99.9,96,85,63,29.85,29.68,17,-6,0,0.46
2013-6-3,72.8,52.1,55.3,63.0,24.3,-99.9,97,60,39,29.89,29.80,14,-195,0,0.00
2013-6-4,67.1,52.7,45.6,50.0,33.7,-99.9,92,61,52,30.12,29.90,16,-82,0,0.00
2013-6-5,69.6,58.3,44.6,55.0,48.2,43.0,96,72,45,30.22,30.11,8,2,0,0.00
2013-6-6,72.9,55.5,52.1,55.0,42.8,-99.9,94,74,49,30.18,30.07,10,-61,0,0.09
2013-6-7,56.4,54.8,53.1,54.0,52.6,50.0,96,92,86,30.07,29.87,13,3,0,0.45
2013-6-8,63.1,58.5,53.9,60.0,56.5,53.0,96,93,84,30.04,29.77,9,2,0,0.17
2013-6-9,78.8,61.2,56.0,62.0,49.2,-99.9,97,76,43,30.19,30.04,15,-50,0,0.00
2013-6-10,74.3,62.9,52.4,64.0,57.6,51.0,96,84,50,30.21,29.95,16,1,0,0.17
2013-6-11,63.4,59.3,57.6,59.0,57.3,56.0,97,93,82,29.95,29.58,14,2,0,0.84
2013-6-12,66.4,29.4,55.1,58.0,-20.7,-99.9,97,47,70,29.86,29.62,15,-485,0,0.11
2013-6-13,66.1,49.5,53.1,59.0,30.8,-99.9,96,75,72,29.84,29.70,8,-156,0,0.06
2013-6-14,73.6,30.2,53.4,61.0,-20.6,-99.9,97,45,55,29.87,29.71,16,-488,0,0.00
2013-6-15,77.4,59.4,45.7,55.0,41.0,-99.9,96,63,36,29.97,29.86,7,-61,0,0.01
2013-6-16,71.6,61.9,54.1,62.0,55.8,49.0,94,81,60,29.93,29.71,13,3,0,0.09
2013-6-17,76.9,62.5,54.7,65.0,53.4,-99.9,97,81,56,29.93,29.79,15,-40,0,0.03
2013-6-18,69.0,46.9,49.9,57.0,19.7,-99.9,94,62,54,30.02,29.92,6,-220,0,0.08
2013-6-19,69.8,57.8,45.6,49.0,44.0,-99.9,96,67,34,30.20,30.00,14,4,0,0.00
2013-6-20,76.7,62.2,45.5,56.0,49.9,44.0,94,68,35,30.27,30.17,11,2,0,0.00
2013-6-21,83.0,66.1,47.4,62.0,55.6,46.0,97,72,39,30.26,30.19,7,2,0,0.00
2013-6-22,80.9,70.2,61.0,70.0,63.4,56.0,95,79,64,30.21,30.08,13,3,0,0.03
2013-6-23,81.4,54.6,67.7,76.0,28.5,-99.9,95,68,75,30.11,29.96,16,-232,0,0.13
2013-6-26,77.4,72.1,67.6,72.0,69.7,67.0,97,92,81,29.82,29.76,10,2,0,0.09
2013-6-27,87.4,75.4,66.3,73.0,69.4,65.0,97,83,55,29.81,29.71,9,2,0,0.01
2013-6-28,80.9,71.8,65.4,69.0,65.9,61.0,96,83,64,29.70,29.41,20,6,0,0.53
2013-6-29,81.7,71.6,64.1,69.0,65.6,62.0,94,82,58,29.68,29.49,17,3,0,0.02
2013-6-30,84.8,73.4,65.3,71.0,66.8,63.0,96,81,56,29.93,29.68,11,2,0,0.82
2013-7-1,70.3,67.7,63.4,68.0,65.9,62.0,96,94,87,30.08,29.93,6,2,0,0.20
2013-7-2,82.9,58.3,60.5,75.0,43.0,-99.9,97,81,76,30.15,30.06,10,-136,0,1.01
2013-7-3,87.1,77.8,70.9,77.0,73.1,70.0,97,86,66,30.17,30.09,18,4,0,0.02
2013-7-4,80.3,39.4,72.5,76.0,-11.7,-99.9,96,46,83,30.20,30.09,10,-478,0,0.01
2013-7-5,81.9,62.2,70.3,76.0,43.8,-99.9,97,77,80,30.16,30.05,15,-163,0,0.49
2013-7-6,87.0,52.5,68.7,73.0,18.1,-99.9,96,59,52,30.10,30.01,12,-306,0,0.02
2013-7-7,81.1,34.8,66.6,74.0,-17.0,-99.9,94,45,80,30.06,29.93,4,-504,0,0.16
2013-7-8,76.9,36.1,71.2,74.0,-14.5,-99.9,97,48,88,30.07,29.95,6,-499,0,0.73
2013-7-9,68.7,7.7,65.9,68.0,-80.8,-99.9,98,11,97,30.10,30.00,0,-884,0,0.00
2013-7-10,76.8,7.1,73.7,75.0,-83.5,-99.9,96,9,92,30.01,29.77,12,-904,0,1.65
2013-7-11,75.3,27.2,62.0,71.0,-35.6,-99.9,94,33,64,30.03,29.76,11,-608,0,0.06
2013-7-12,79.1,48.2,59.9,68.0,15.2,-99.9,96,59,62,30.21,30.03,9,-288,0,0.00
2013-7-13,79.8,18.7,66.4,71.0,-58.0,-99.9,95,22,74,30.32,30.21,4,-739,0,0.00
2013-7-14,85.6,77.2,68.8,75.0,71.5,67.0,95,83,61,30.32,30.23,7,1,0,0.00
2013-7-15,93.1,79.0,68.3,75.0,70.2,67.0,96,77,43,30.25,30.14,5,1,0,0.00
2013-7-16,88.5,77.9,65.3,74.0,69.6,64.0,97,77,53,30.24,30.17,10,2,0,0.00
2013-7-17,92.6,65.3,69.5,77.0,33.8,-99.9,95,56,58,30.21,29.98,14,-218,0,0.00
2013-7-18,91.9,78.4,69.8,77.0,70.3,-99.9,97,81,58,30.05,29.93,10,-19,0,0.01
2013-7-19,93.4,65.0,72.6,79.0,39.1,-99.9,95,64,53,29.94,29.69,18,-195,0,0.01
2013-7-20,84.2,42.7,72.0,75.0,-4.8,-99.9,87,46,67,29.83,29.67,14,-424,0,0.01
2013-7-21,77.8,68.3,61.3,65.0,58.7,-99.9,93,74,55,30.03,29.84,10,-7,0,0.00
2013-7-22,83.6,52.3,56.0,70.0,24.0,-99.9,96,62,61,30.04,29.85,7,-233,0,0.00
2013-7-23,80.5,34.4,70.1,72.0,-23.5,-99.9,93,38,73,29.85,29.57,5,-538,0,0.66
2013-7-24,71.6,66.1,51.4,68.0,60.9,50.0,96,84,66,30.05,29.59,18,4,0,0.00
2013-7-25,70.4,59.7,47.4,58.0,52.6,46.0,97,78,61,30.15,30.05,11,3,0,0.00
2013-7-26,73.9,62.9,54.0,65.0,58.3,53.0,97,85,68,30.12,30.02,11,2,0,0.00
2013-7-27,82.4,52.1,55.0,67.0,15.6,-99.9,96,51,49,30.07,29.95,12,-288,0,0.00
2013-7-28,79.6,40.4,65.4,70.0,-8.9,-99.9,90,43,70,29.99,29.91,15,-453,0,0.00
2013-7-29,80.9,18.4,64.3,61.0,-59.3,-99.9,87,17,43,30.10,29.96,11,-730,0,0.00
2013-7-30,76.5,21.8,59.5,64.0,-47.4,-99.9,93,27,57,30.16,30.07,5,-673,0,0.00
2013-7-31,80.4,22.0,65.4,66.0,-52.8,-99.9,85,19,52,30.16,30.03,12,-708,0,0.00
2013-8-1,77.7,33.6,62.7,67.0,-18.9,-99.9,93,42,69,30.03,29.84,13,-497,0,0.00
2013-8-2,80.2,67.7,60.0,66.0,54.5,-99.9,96,72,45,29.86,29.80,13,-39,0,0.00
2013-8-3,77.4,57.6,61.1,65.0,32.5,-99.9,92,60,48,29.86,29.79,13,-164,0,0.00
2013-8-4,74.8,58.7,57.1,62.0,43.1,-99.9,96,73,51,29.96,29.83,11,-77,0,0.07
2013-8-5,73.3,62.0,49.8,56.0,50.1,40.0,92,69,35,30.06,29.96,15,3,0,0.00
2013-8-6,76.4,64.5,52.0,60.0,53.7,49.0,90,71,42,30.13,30.06,12,3,0,0.00
2013-8-7,79.8,70.7,62.3,65.0,60.6,57.0,85,71,50,30.15,30.02,17,6,0,0.00
2013-8-8,84.3,75.6,69.8,72.0,68.4,62.0,88,78,63,30.02,29.95,21,5,0,0.00
2013-8-9,78.1,73.9,71.4,73.0,71.5,70.0,96,92,83,29.96,29.78,6,1,0,1.00
2013-8-10,76.8,69.1,55.2,69.0,58.0,50.0,95,70,41,30.05,29.82,11,3,0,0.00
2013-8-11,77.2,64.8,52.7,61.0,56.4,51.0,95,76,50,30.11,29.99,11,2,0,0.00
2013-8-12,78.4,67.7,56.7,65.0,59.7,55.0,94,77,53,30.04,29.91,15,2,0,0.00
2013-8-13,71.2,66.6,63.2,66.0,63.1,60.0,95,88,79,29.90,29.69,11,2,0,0.29
2013-8-14,69.6,61.3,51.1,62.0,54.4,50.0,94,78,61,29.99,29.72,14,4,0,0.00
2013-8-15,74.1,24.3,50.6,56.0,-32.7,-99.9,96,39,50,30.11,29.99,12,-554,0,0.01
2013-8-16,76.9,23.2,52.8,61.0,-46.1,-99.9,92,27,53,30.22,30.11,13,-630,0,0.00
2013-8-17,78.0,41.4,54.2,63.0,-1.1,-99.9,96,49,53,30.32,30.23,5,-353,0,0.00
2013-8-18,76.2,65.9,55.5,66.0,60.3,54.0,97,83,62,30.29,30.10,9,1,0,0.00
2013-8-19,83.2,69.5,58.1,70.0,62.2,57.0,96,80,49,30.10,29.96,5,1,0,0.00
2013-8-20,83.7,71.3,60.2,71.0,63.8,58.0,96,79,55,30.11,30.01,9,2,0,0.00
2013-8-21,85.3,74.2,62.6,70.0,65.3,61.0,93,75,57,30.17,30.01,10,3,0,0.00
2013-8-22,85.0,72.0,62.5,71.0,66.1,61.0,96,83,59,30.03,29.82,15,4,0,0.21
2013-8-23,71.3,64.0,52.3,65.0,57.5,50.0,97,81,54,30.20,29.90,14,4,0,0.01
2013-8-24,80.0,61.5,45.6,60.0,51.7,45.0,97,75,33,30.35,30.21,5,1,0,0.00
2013-8-25,78.5,65.1,48.3,63.0,56.5,47.0,97,76,49,30.40,30.14,10,2,0,0.02
2013-8-26,75.0,69.6,63.7,70.0,65.6,62.0,95,87,79,30.15,29.89,14,2,0,0.82
2013-8-27,83.1,72.6,66.5,74.0,69.3,65.0,97,90,68,29.93,29.87,4,0,0,0.06
2013-8-28,84.9,72.5,62.7,73.0,67.9,62.0,98,87,58,29.96,29.85,7,1,0,0.01
2013-8-29,81.3,71.5,63.4,70.0,65.6,62.0,95,82,61,30.06,29.95,6,1,0,0.00
2013-8-30,83.3,73.3,64.2,72.0,67.4,63.0,96,83,66,30.02,29.79,13,3,0,0.00
2013-8-31,78.3,72.7,68.8,74.0,70.2,67.0,95,92,83,29.81,29.75,10,2,0,0.22
2013-9-1,82.5,74.0,69.6,74.0,70.2,69.0,96,88,67,29.89,29.81,4,1,0,0.00
2013-9-2,79.9,72.5,64.5,72.0,69.1,63.0,97,89,73,29.84,29.68,10,2,0,0.26
2013-9-3,74.9,68.0,61.1,66.0,62.9,58.0,96,84,67,29.83,29.73,14,4,0,0.00
2013-9-4,78.1,67.2,56.8,62.0,59.4,56.0,97,78,50,29.93,29.84,17,4,0,0.00
2013-9-5,65.5,14.1,59.1,61.0,-66.7,-99.9,95,20,49,30.20,29.89,9,-759,0,0.10
2013-9-6,68.4,52.3,41.6,50.0,36.3,-99.9,96,66,44,30.28,30.09,11,-61,0,0.01
2013-9-7,68.6,60.9,50.6,57.0,52.1,47.0,89,74,65,30.09,29.86,11,3,0,0.00
2013-9-8,63.0,47.1,49.3,57.0,18.7,-99.9,93,57,51,30.12,29.79,18,-206,0,0.07
2013-9-9,67.7,42.0,41.6,52.0,10.8,-99.9,95,57,46,30.23,30.07,17,-228,0,0.00
2013-9-10,73.8,60.4,58.9,71.0,47.0,-99.9,95,79,78,30.09,29.99,14,-102,0,0.45
2013-9-11,89.9,74.0,71.4,80.0,62.4,-99.9,94,78,66,30.04,29.89,19,-58,0,0.18
2013-9-12,82.1,18.7,68.6,73.0,-58.5,-99.9,95,21,72,29.94,29.65,13,-743,0,0.05
2013-9-13,68.5,59.8,54.0,67.0,56.3,-99.9,96,90,86,29.88,29.64,16,-6,0,0.10
2013-9-14,63.5,56.0,52.0,55.0,51.7,50.0,95,85,69,30.10,29.87,7,2,0,0.00
2013-9-15,66.5,56.5,45.3,56.0,51.4,44.0,96,84,67,30.17,30.04,13,3,0,0.00
2013-9-16,58.4,25.7,48.8,55.0,-28.8,-99.9,95,43,87,30.32,30.02,15,-535,0,0.21
2013-9-17,51.7,14.1,33.6,46.0,-48.4,-99.9,97,36,81,30.49,30.32,2,-620,0,0.00
2013-9-18,70.4,15.6,44.1,52.0,-63.2,-99.9,93,17,49,30.33,30.13,9,-743,0,0.00
2013-9-19,76.7,18.0,45.8,56.0,-54.2,-99.9,95,23,44,30.17,30.04,6,-694,0,0.00
2013-9-20,78.7,4.2,63.9,58.0,-90.1,-99.9,82,5,48,30.10,29.93,10,-936,0,0.00
2013-9-21,75.7,51.9,60.5,62.0,19.1,-99.9,89,53,46,29.96,29.60,24,-242,0,0.07
2013-9-22,65.9,55.4,48.0,63.0,45.1,-99.9,95,79,69,29.92,29.59,15,-49,0,0.45
2013-9-23,53.7,23.6,39.5,43.0,-26.7,-99.9,94,44,64,30.08,29.92,13,-467,0,0.00
2013-9-24,60.7,0.6,60.7,-99.9,-99.9,-99.9,0,0,100,30.06,29.90,2,-978,0,0.00
2013-9-25,44.8,9.1,38.9,44.0,-68.7,-99.9,96,21,95,30.02,29.92,0,-776,0,0.01
2013-9-26,43.5,3.8,38.9,43.0,-86.6,-99.9,97,9,96,30.18,30.02,0,-903,0,0.00
2013-9-27,47.0,2.4,46.1,46.0,-92.3,-99.9,96,5,95,30.32,30.18,0,-946,0,0.01
2013-9-28,50.5,18.2,40.3,50.0,-41.1,-99.9,97,40,95,30.38,30.26,4,-589,0,0.02
2013-9-29,59.1,6.6,45.5,49.0,-81.6,-99.9,96,12,93,30.25,30.08,9,-843,0,0.00
2013-9-30,-200.0,0.0,200.0,-99.9,-99.9,-99.9,0,0,100,30.11,29.98,0,-999,0,0.00
2013-10-1,47.3,0.5,47.3,45.0,-98.3,-99.9,92,1,92,30.02,29.88,0,-988,0,0.00
2013-10-2,53.8,0.6,53.8,-99.9,-99.9,-99.9,0,0,100,29.99,29.85,0,-988,0,0.00
2013-10-3,-200.0,0.0,200.0,-99.9,-99.9,-99.9,0,0,100,30.12,29.99,0,-999,0,0.00
2013-10-4,-200.0,0.0,200.0,-99.9,-99.9,-99.9,0,0,100,30.12,30.06,0,-999,0,0.00
2013-10-5,-200.0,0.0,200.0,-99.9,-99.9,-99.9,0,0,100,30.15,30.09,0,-999,0,0.00
2013-10-6,58.8,21.2,53.9,53.0,-42.8,-99.9,92,32,82,30.15,30.04,19,-621,0,0.23
2013-10-7,74.1,54.9,54.6,66.0,34.0,-99.9,94,70,69,30.02,29.59,23,-129,0,0.83
2013-10-8,44.7,4.0,39.8,42.0,-86.6,-99.9,94,9,87,30.41,29.91,0,-904,0,0.00
2013-10-9,63.1,20.0,34.8,44.0,-34.6,-99.9,96,43,46,30.48,30.35,9,-515,0,0.02
2013-10-10,47.4,5.6,41.1,45.0,-83.5,-99.9,93,10,84,30.35,30.19,4,-871,0,0.00
2013-10-11,46.7,3.3,44.5,46.0,-89.4,-99.9,96,7,95,30.20,30.13,0,-916,0,0.00
2013-10-12,71.9,43.5,38.8,57.0,17.4,-99.9,97,64,57,30.37,30.18,15,-205,0,0.00
2013-10-13,69.0,22.8,52.0,51.0,-41.2,-99.9,88,31,47,30.43,30.31,12,-583,0,0.00
2013-10-14,60.1,47.5,48.4,56.0,30.0,-99.9,95,76,82,30.35,30.25,9,-144,0,0.02
2013-10-15,66.8,57.5,54.5,59.0,52.3,-99.9,97,87,74,30.29,30.10,12,-9,0,0.00
2013-10-16,66.1,60.7,53.7,57.0,54.1,51.0,91,79,67,30.10,29.83,13,4,0,0.02
2013-10-17,68.6,60.0,53.0,57.0,53.3,48.0,94,79,52,29.85,29.69,13,3,0,0.13
2013-10-18,62.7,52.9,42.8,54.0,46.2,-99.9,96,83,60,29.92,29.61,14,-18,0,0.47
2013-10-19,63.8,52.7,40.2,48.0,44.2,39.0,95,74,55,29.94,29.67,17,4,0,0.04
2013-10-20,57.7,51.7,40.1,50.0,41.3,36.0,88,69,47,30.02,29.65,19,6,0,0.00
2013-10-21,63.3,51.1,36.6,46.0,41.3,35.0,95,72,49,30.09,29.88,16,4,0,0.00
2013-10-22,58.5,51.5,35.2,49.0,41.5,32.0,90,70,50,29.87,29.70,20,5,0,0.00
2013-10-23,53.3,43.2,32.5,41.0,36.6,31.0,94,79,54,29.80,29.62,13,2,0,0.01
2013-10-24,46.6,40.5,32.4,40.0,35.3,30.0,92,82,66,29.89,29.68,18,4,0,0.06
2013-10-25,46.9,28.0,35.8,36.0,-12.0,-99.9,89,45,53,30.15,29.90,11,-327,0,0.00
2013-10-26,49.2,42.6,29.7,37.0,33.4,27.0,93,72,51,30.15,29.82,22,6,0,0.00
2013-10-27,49.4,43.7,32.5,40.0,34.2,29.0,88,70,56,30.05,29.77,15,4,0,0.00
2013-10-28,48.1,39.8,28.6,41.0,32.1,23.0,91,75,53,30.40,30.04,18,4,0,0.01
2013-10-29,46.7,31.6,20.5,30.0,24.0,19.0,93,75,44,30.51,30.36,7,1,0,0.00
2013-10-30,48.7,39.4,31.5,38.0,32.1,23.0,92,76,63,30.35,30.19,9,2,0,0.00
2013-10-31,61.7,47.5,34.3,59.0,45.2,32.0,95,91,85,30.23,29.63,13,3,0,0.40
2013-11-1,67.5,62.5,52.8,62.0,54.3,44.0,92,76,45,29.65,29.29,30,12,0,0.42
2013-11-2,56.6,45.9,38.4,47.0,41.9,36.0,95,86,67,29.88,29.62,17,4,0,0.04
2013-11-3,38.6,33.2,23.7,36.0,22.7,-99.9,90,68,51,30.49,29.88,20,-2,0,0.00
2013-11-4,39.5,18.0,24.1,25.0,-34.2,-99.9,85,34,48,30.70,30.49,11,-455,0,0.00
2013-11-5,50.4,28.7,39.1,36.0,-16.5,-99.9,71,39,50,30.66,30.44,16,-371,0,0.00
2013-11-6,60.0,51.4,40.4,47.0,42.4,34.0,81,72,60,30.44,29.89,20,7,0,0.00
2013-11-7,56.8,48.9,33.6,53.0,43.9,26.0,92,83,68,29.89,29.73,16,5,0,0.19
2013-11-8,43.3,36.1,29.1,35.0,28.2,25.0,93,74,55,30.12,29.86,15,4,0,0.01
2013-11-9,42.5,37.3,27.8,35.0,27.3,22.0,87,68,55,30.21,29.94,11,4,0,0.01
2013-11-10,45.5,41.4,37.0,40.0,37.0,32.0,92,84,74,29.93,29.72,19,6,0,0.07
2013-11-11,45.5,41.0,34.6,36.0,31.7,29.0,83,70,59,30.11,29.85,19,6,0,0.00
2013-11-12,43.4,30.0,21.5,37.0,21.5,17.0,90,71,57,30.26,29.87,16,5,0,0.00
2013-11-13,35.3,18.3,21.3,23.0,-33.2,-99.9,84,33,42,30.35,30.09,16,-424,0,0.00
2013-11-14,46.5,38.1,32.7,30.0,24.8,21.0,70,59,46,30.08,30.03,21,6,0,0.00
2013-11-15,54.8,45.1,39.3,26.0,22.4,19.0,59,41,30,30.18,30.07,16,5,0,0.00
2013-11-16,57.8,47.4,38.8,35.0,30.6,25.0,69,53,40,30.30,30.17,13,3,0,0.00
2013-11-17,58.2,50.6,39.9,53.0,44.1,32.0,87,78,63,30.25,29.68,23,7,0,0.02
2013-11-18,60.9,53.8,43.0,58.0,43.3,31.0,93,69,45,29.70,29.39,29,10,0,0.30
2013-11-19,42.8,34.8,28.2,33.0,22.5,17.0,75,61,53,30.39,29.69,20,8,0,0.00
2013-11-20,36.6,28.0,20.1,23.0,19.6,17.0,91,72,55,30.65,30.39,9,2,0,0.00
2013-11-21,42.9,31.6,17.6,30.0,21.7,15.0,92,69,38,30.64,30.34,21,4,0,0.00
2013-11-22,45.2,41.7,36.6,43.0,38.6,30.0,94,89,70,30.34,29.82,10,3,0,0.14
2013-11-23,44.4,34.2,24.8,42.0,25.6,16.0,91,72,54,29.98,29.80,20,5,0,0.00
2013-11-24,24.5,20.1,11.6,20.0,6.3,0.0,87,56,42,30.27,29.86,19,7,0,0.00
2013-11-25,31.6,20.7,7.6,19.0,9.9,2.0,87,65,43,30.41,30.18,14,4,0,0.00
2013-11-26,35.9,32.2,30.3,34.0,24.6,-99.9,93,79,55,30.27,29.98,19,-15,0,0.06
2013-11-27,39.6,35.7,33.1,37.0,33.3,-99.9,96,93,89,29.97,29.40,10,-7,0,1.01
2013-11-28,33.2,22.5,12.9,32.0,15.0,9.0,95,74,50,30.45,29.56,14,4,0,0.00
2013-11-29,26.1,16.5,8.9,19.0,11.3,6.0,91,80,59,30.80,30.45,6,1,0,0.02
2013-11-30,29.4,20.4,7.3,18.0,12.4,4.0,90,72,54,30.82,30.36,17,3,0,0.00
2013-12-1,39.1,33.5,28.2,33.0,28.3,18.0,93,81,63,30.35,30.05,11,2,0,0.01
2013-12-2,38.9,34.7,28.7,35.0,32.1,27.0,95,90,81,30.05,29.91,10,1,0,0.00
2013-12-3,45.3,36.3,30.6,38.0,32.7,29.0,95,87,73,30.01,29.91,8,2,0,0.01
2013-12-4,40.1,32.7,26.3,32.0,28.3,24.0,93,84,69,30.18,30.01,5,1,0,0.00
2013-12-5,54.6,44.5,28.1,52.0,41.0,26.0,93,87,78,30.14,29.84,15,4,0,0.00
2013-12-6,53.3,40.6,33.0,52.0,36.8,30.0,95,86,74,30.17,29.87,9,2,0,0.61
2013-12-7,34.4,31.3,27.6,32.0,23.8,17.0,94,75,54,30.48,30.13,13,3,0,0.00
2013-12-8,29.3,26.9,22.7,20.0,17.3,15.0,79,67,59,30.60,30.46,6,1,0,0.00
2013-12-9,37.2,31.7,26.1,34.0,26.8,18.0,91,82,64,30.46,29.88,21,7,0,0.02
2013-12-10,37.8,31.4,20.9,33.0,21.7,13.0,85,68,53,29.97,29.81,15,6,0,0.01
2013-12-11,30.5,23.9,18.5,20.0,15.4,12.0,84,71,53,30.18,29.97,17,5,0,0.00
2013-12-12,21.1,17.2,9.4,16.0,7.7,1.0,88,67,47,30.34,30.00,21,6,0,0.00
2013-12-13,19.8,15.0,4.0,17.0,8.9,-3.0,89,77,65,30.48,29.93,18,5,0,0.00
2013-12-14,10.8,6.4,0.1,99.9,5.4,-5.0,89,78,69,30.65,30.15,5,2,0,0.00
2013-12-15,26.4,20.7,11.0,22.0,17.9,8.0,93,88,74,30.13,29.56,13,3,0,0.00
2013-12-16,22.4,15.4,1.8,99.9,7.4,-4.0,93,68,50,30.26,29.72,16,4,0,0.01
2013-12-17,164.0,6.7,0.7,99.9,45.7,-3.0,90,84,76,30.21,29.98,5,1,0,0.00
2013-12-18,30.2,20.4,7.5,24.0,16.5,5.0,91,85,74,30.03,29.95,10,2,0,0.10
2013-12-19,39.3,33.6,28.2,31.0,26.2,24.0,89,75,64,30.08,29.94,16,6,0,0.04
2013-12-20,40.9,35.8,27.2,37.0,31.1,26.0,94,83,71,30.08,29.89,11,2,0,0.14
2013-12-21,51.0,37.3,27.8,46.0,35.0,26.0,96,91,81,29.96,29.80,17,4,0,0.16
2013-12-22,32.3,29.5,26.6,31.0,28.2,25.0,96,94,93,29.97,29.66,11,1,0,0.00
2013-12-23,34.1,32.1,28.5,33.0,31.1,26.0,96,96,91,30.19,29.97,0,0,0,0.01
2013-12-24,28.2,20.1,11.2,26.0,16.7,8.0,93,87,79,30.34,30.16,10,1,0,0.00
2013-12-25,16.0,10.5,3.0,13.0,6.1,-1.0,89,82,70,30.59,30.35,11,2,0,0.00
2013-12-26,28.9,24.7,15.8,26.0,21.1,13.0,93,86,69,30.41,30.10,10,3,0,0.00
2013-12-27,30.5,21.5,22.9,25.0,-3.9,-99.9,93,66,74,30.26,30.18,14,-205,0,0.00
2013-12-28,31.7,6.4,26.8,30.0,-72.5,-99.9,95,19,81,30.17,29.99,7,-780,0,0.00
2013-12-29,43.7,31.3,32.8,34.0,14.0,-99.9,96,73,64,30.01,29.60,18,-135,0,0.56
2013-12-30,37.2,25.4,9.6,35.0,18.9,2.0,96,77,54,30.22,29.60,14,5,0,0.02
2013-12-31,19.8,13.6,8.2,15.0,7.3,1.0,88,76,69,30.22,30.02,10,3,0,0.00
2014-1-1,20.7,14.5,2.8,13.0,6.1,-5.0,83,70,55,30.46,30.15,16,7,0,0.00
2014-1-2,2.8,0.4,0.0,99.9,77.9,-7.0,83,79,68,30.46,29.90,15,8,0,0.00